Regional Weather Roundup
Issued by NWS

Home | Current Version | Previous Version | Graphics & Text | Print | Product List | Glossary On
Versions: 1 2 3 4 5 6 7 8 9 10 11 12 13 14 15 16 17 18 19 20 21 22 23 24 25 26 27 28 29 30 31 32 33 34 35 36 37 38 39 40 41 42 43 44 45 46 47 48 49 50
000
ASUS43 KBIS 262020
RWRND

NORTH DAKOTA REGIONAL WEATHER ROUNDUP
NATIONAL WEATHER SERVICE BISMARCK ND
300 PM CDT TUE MAY 26 2015

NOTE: "FAIR" INDICATES FEW OR NO CLOUDS BELOW 12,000 FEET WITH NO
SIGNIFICANT WEATHER AND/OR OBSTRUCTIONS TO VISIBILITY.


NDZ001>003-009>011-017-262100-
NORTHWEST NORTH DAKOTA

CITY           SKY/WX    TMP DP  RH WIND       PRES   REMARKS
WILLISTON      MOSUNNY   80  45  28 W10       29.89F
MINOT          MOSUNNY   77  40  26 W20       29.85S
MINOT AFB      MOSUNNY   85  42  21 N13G20    29.82F
$$

NDZ018>021-031>035-040>046-262100-
SOUTHWEST NORTH DAKOTA

CITY           SKY/WX    TMP DP  RH WIND       PRES   REMARKS
BISMARCK       SUNNY     81  46  29 NW13      29.88F
DICKINSON      CLOUDY    76  40  27 VRB7      29.91F
GARRISON         N/A     78  40  25 E6        29.87F
HETTINGER ARPT MOSUNNY   69  46  43 S6        29.95F
$$

NDZ004>008-012>016-024-026-027-054-262100-
NORTHEAST NORTH DAKOTA

CITY           SKY/WX    TMP DP  RH WIND       PRES   REMARKS
GRAND FORKS    MOSUNNY   84  44  24 CALM      29.74F
GRND FRKS AFB  MOSUNNY   84  44  24 N12G17    29.75F
DEVILS LAKE    MOSUNNY   75  41  29 W18       29.79F
$$

NDZ022-023-025-028>030-036>039-047>053-262100-
SOUTHEAST NORTH DAKOTA

CITY           SKY/WX    TMP DP  RH WIND       PRES   REMARKS
FARGO          PTSUNNY   76  56  49 S7        29.79F
JAMESTOWN      PTSUNNY   76  47  35 N18G28    29.80F
$$




USA.gov is the U.S. government's official web portal to all federal, state and local government web resources and services.